This demonstration page uses our WeatherBlox Daily Observations layout. Learn more.

Left ArrowRight Arrow

Hourly Observations for June 26, 2022

Temp ( °F °C ) Dew Point ( °F °C ) Humidity (%) Winds ( mph kmh ) Pressure ( in mb ) Visibility ( mi km ) Precip ( " mm )
12:53 am 00:53 Clear 47 8.3 40 4.4 77 77 S 5 7 30.38 1029 10 16 0.00 0.00
1:53 am 01:53 Clear 46 7.8 40 4.4 79 79 Calm 30.37 1029 10 16 0.00 0.00
2:53 am 02:53 Clear 44 6.7 38 3.3 79 79 Calm 30.38 1029 10 16 0.00 0.00
3:53 am 03:53 Clear 43 6.1 38 3.3 82 82 W 6 9 30.38 1029 10 16 0.00 0.00
4:53 am 04:53 Clear 43 6.1 38 3.3 82 82 W 3 6 30.37 1029 10 16 0.00 0.00
5:53 am 05:53 Sunny 40 4.4 37 2.8 89 89 Calm 30.39 1029 10 16 0.00 0.00
6:53 am 06:53 Sunny 48 8.9 42 5.6 80 80 E 5 7 30.38 1029 10 16 0.00 0.00
7:53 am 07:53 Sunny 54 12.2 42 5.6 64 64 NE 6 9 30.37 1029 10 16 0.00 0.00
8:53 am 08:53 Sunny 59 15 41 5 51 51 E 6 9 30.36 1028 10 16 0.00 0.00
9:53 am 09:53 Sunny 65 18.3 44 6.7 47 47 VRB 3 6 30.35 1028 10 16 0.00 0.00
10:53 am 10:53 Sunny 71 21.7 39 3.9 31 31 Calm 30.33 1027 10 16 0.00 0.00
11:53 am 11:53 Sunny 73 22.8 37 2.8 27 27 SW 8 13 30.31 1026 10 16 0.00 0.00
12:53 pm 12:53 Sunny 75 23.9 37 2.8 25 25 undefined N/A 30.28 1025 10 16 0.00 0.00
1:53 pm 13:53 Sunny 76 24.4 33 0.6 21 21 VRB 7 11 30.26 1025 10 16 0.00 0.00
2:53 pm 14:53 Sunny 79 26.1 32 0 18 18 SSE 12 19 30.23 1024 10 16 0.00 0.00
3:53 pm 15:53 Sunny 78 25.6 31 -0.6 18 18 VRB 5 7 30.21 1023 10 16 0.00 0.00
4:53 pm 16:53 Sunny 79 26.1 28 -2.2 15 15 VRB 3 6 30.19 1022 10 16 0.00 0.00
5:53 pm 17:53 Sunny 80 26.7 31 -0.6 17 17 SSE 5 7 30.17 1022 10 16 0.00 0.00
6:53 pm 18:53 Sunny 80 26.7 32 0 17 17 SSE 5 7 30.15 1021 10 16 0.00 0.00
7:53 pm 19:53 Sunny 81 27.2 32 0 17 17 NW 3 6 30.13 1020 10 16 0.00 0.00
8:53 pm 20:53 Sunny 74 23.3 39 3.9 28 28 NNE 7 11 30.14 1021 10 16 0.00 0.00
9:53 pm 21:53 Clear 66 18.9 41 5 40 40 NE 9 15 30.14 1021 10 16 0.00 0.00
10:53 pm 22:53 Clear 53 11.7 40 4.4 61 61 SSE 5 7 30.16 1022 10 16 0.00 0.00
11:53 pm 23:53 Clear 53 11.7 39 3.9 59 59 S 5 7 30.16 1021 10 16 0.00 0.00

Powered by AerisWeather